FW5697 Weather Reports


time (UTC)temp
F
wind
direction
speed
knots
gust
knots
rain 1hr
in
rain 24hr
in
rain mn
in
humidity
%
barometer
mb
20260505151529 68 0 0.0 4.3 0.00 0.00 0.00 64 1016.8
20260505124528 54 0 0.0 0.9 0.00 0.00 0.00 89 1015.4
20260505123028 52 0 0.0 1.7 0.00 0.00 0.00 90 1015.4
20260505121528 50 0 0.0 0.0 0.00 0.00 0.00 93 1015.5
20260505120028 49 0 0.0 0.0 0.00 0.00 0.00 93 1015.0
20260505114530 48 0 0.0 0.9 0.00 0.00 0.00 93 1015.0
20260505113032 47 0 0.0 0.0 0.00 0.00 0.00 93 1015.0
20260505111529 47 0 0.0 0.9 0.00 0.00 0.00 92 1015.0
20260505101529 48 0 0.0 0.0 0.00 0.00 0.00 90 1014.9
20260505100027 48 0 0.0 0.0 0.00 0.00 0.00 90 1014.7
20260505094530 48 0 0.0 0.0 0.00 0.00 0.00 90 1014.7
20260505093029 48 0 0.0 0.0 0.00 0.00 0.00 89 1014.9
20260505091530 49 0 0.0 0.9 0.00 0.00 0.00 89 1015.1
20260505090027 49 0 0.0 0.0 0.00 0.00 0.00 88 1015.2
20260505084535 49 0 0.0 0.0 0.00 0.00 0.00 89 1015.1
20260505083029 49 0 0.0 0.9 0.00 0.00 0.00 88 1015.0
20260505081528 49 0 0.0 0.0 0.00 0.00 0.00 88 1015.2
20260505080030 50 0 0.0 1.7 0.00 0.00 0.00 87 1015.1
20260505074529 50 0 0.0 0.0 0.00 0.00 0.00 87 1014.7
20260505073039 50 0 0.0 0.0 0.00 0.00 0.00 86 1014.7
20260505071531 51 0 0.0 0.0 0.00 0.00 0.00 85 1014.7
20260505070038 51 0 0.0 0.0 0.00 0.00 0.00 85 1014.7
20260505064527 52 0 0.0 0.0 0.00 0.00 0.00 84 1014.7
20260505063027 52 0 0.0 0.0 0.00 0.00 0.00 82 1014.7
20260505061538 53 0 0.0 0.0 0.00 0.00 0.00 81 1014.8
20260505060030 53 0 0.0 0.0 0.00 0.00 0.00 79 1014.9
20260505054536 54 0 0.0 0.0 0.00 0.00 0.00 79 1015.1
20260505053032 54 0 0.0 0.0 0.00 0.00 0.00 76 1015.1
20260505051531 55 0 0.0 0.0 0.00 0.00 0.00 74 1015.1
20260505041541 56 0 0.0 0.9 0.00 0.00 0.00 74 1015.0
20260505040037 57 0 0.0 0.0 0.00 0.00 0.00 73 1015.1
20260505034532 58 0 0.0 0.0 0.00 0.00 0.00 71 1015.2
20260505033029 60 0 0.0 0.9 0.00 0.00 0.00 69 1015.2
20260505031537 61 0 0.0 1.7 0.00 0.00 0.00 59 1015.4
20260505030028 61 0 0.0 1.7 0.00 0.00 0.00 61 1015.3
20260505024528 60 0 0.0 0.9 0.00 0.00 0.00 67 1015.3
20260505023027 60 0 0.0 0.0 0.00 0.00 0.00 74 1015.3
20260505021528 60 0 0.0 0.0 0.00 0.00 0.00 73 1015.2
20260505020027 61 0 0.0 0.0 0.00 0.00 0.00 71 1015.2
20260505014534 62 0 0.0 0.0 0.00 0.00 0.00 71 1015.1
20260505013030 63 0 0.0 0.0 0.00 0.00 0.00 69 1014.9
20260505011530 64 0 0.0 0.0 0.00 0.00 0.00 66 1014.8
20260505010031 65 0 0.0 0.0 0.00 0.00 0.00 64 1014.6
20260505004533 67 0 0.0 0.0 0.00 0.00 0.00 61 1014.3
20260505003027 68 0 0.0 0.0 0.00 0.00 0.00 58 1014.3
20260505001529 70 0 0.0 0.0 0.00 0.00 0.00 56 1014.1
20260505000045 71 0 0.0 0.0 0.00 0.00 0.00 53 1014.1
20260504234533 73 0 0.0 0.0 0.00 0.00 0.00 46 1014.2
20260504233028 75 0 0.0 0.9 0.00 0.00 0.00 43 1014.1
20260504231531 75 182 0.0 1.7 0.00 0.00 0.00 41 1014.2
20260504230027 76 213 0.9 2.6 0.00 0.00 0.00 37 1014.1
20260504224528 77 228 1.7 4.3 0.00 0.00 0.00 35 1014.2
20260504223042 77 201 0.9 2.6 0.00 0.00 0.00 35 1014.1
20260504221531 76 0 0.9 2.6 0.00 0.00 0.00 37 1014.1
20260504220028 77 200 0.9 2.6 0.00 0.00 0.00 35 1014.0
20260504214531 78 238 1.7 6.1 0.00 0.00 0.00 33 1014.0
20260504213045 77 153 0.9 2.6 0.00 0.00 0.00 40 1014.0
20260504211534 78 0 0.0 2.6 0.00 0.00 0.00 36 1013.9
20260504210030 79 186 1.7 4.3 0.00 0.00 0.00 33 1014.1
20260504204541 78 96 0.0 3.5 0.00 0.00 0.00 37 1014.2
20260504203029 78 171 0.9 5.2 0.00 0.00 0.00 33 1014.4
20260504201529 79 189 0.9 4.3 0.00 0.00 0.00 34 1014.5
20260504200028 79 232 0.9 3.5 0.00 0.00 0.00 33 1014.7
20260504194530 79 215 0.9 4.3 0.00 0.00 0.00 35 1014.9
20260504193030 78 140 0.9 3.5 0.00 0.00 0.00 34 1015.0
20260504191529 77 151 0.9 5.2 0.00 0.00 0.00 34 1015.2
20260504190028 77 84 0.9 5.2 0.00 0.00 0.00 33 1015.5
20260504184531 77 218 0.9 3.5 0.00 0.00 0.00 36 1015.7
20260504183027 75 0 0.9 3.5 0.00 0.00 0.00 35 1015.9
20260504181531 75 0 1.7 3.5 0.00 0.00 0.00 34 1016.1
20260504180028 75 213 0.0 1.7 0.00 0.00 0.00 37 1016.2
20260504174528 74 190 0.9 5.2 0.00 0.00 0.00 37 1016.4
20260504173030 73 0 0.0 3.5 0.00 0.00 0.00 39 1016.5
20260504171530 73 31 0.9 5.2 0.00 0.00 0.00 39 1016.7